Time,TemperatureF,DewpointF,PressureIn,WindDirection,WindDirectionDegrees,WindSpeedMPH,WindSpeedGustMPH,Humidity,HourlyPrecipIn,Conditions,Clouds,dailyrainin,SoftwareType,DateUTC
2013-01-15 00:01:00,12.7,-9.7,29.21,SSW,204,0.0,0.0,35,0.00,,,0.00,VWS V14.01,2013-01-15 06:01:00,
2013-01-15 00:06:00,12.6,-9.9,29.21,SSW,204,0.0,0.0,35,0.00,,,0.00,VWS V14.01,2013-01-15 06:06:00,
2013-01-15 00:11:00,12.6,-9.9,29.18,SSW,204,0.0,0.0,35,0.00,,,0.00,VWS V14.01,2013-01-15 06:11:00,
2013-01-15 00:16:00,12.2,-10.2,29.18,SSW,204,0.0,0.0,35,0.00,,,0.00,VWS V14.01,2013-01-15 06:16:00,
2013-01-15 00:21:00,12.4,-10.1,29.18,SSW,204,0.0,0.0,35,0.00,,,0.00,VWS V14.01,2013-01-15 06:21:00,
2013-01-15 00:26:00,12.4,-10.1,29.21,SSW,204,0.0,0.0,35,0.00,,,0.00,VWS V14.01,2013-01-15 06:26:00,
2013-01-15 00:31:00,12.2,-10.2,29.21,SSW,204,0.0,0.0,35,0.00,,,0.00,VWS V14.01,2013-01-15 06:31:00,
2013-01-15 00:36:00,12.0,-10.4,29.21,SSW,204,0.0,0.0,35,0.00,,,0.00,VWS V14.01,2013-01-15 06:36:00,
2013-01-15 00:40:00,11.8,-10.5,29.18,SSW,204,0.0,0.0,35,0.00,,,0.00,VWS V14.01,2013-01-15 06:40:00,
2013-01-15 00:46:00,11.5,-10.9,29.18,SSW,204,0.0,0.0,35,0.00,,,0.00,VWS V14.01,2013-01-15 06:46:00,
2013-01-15 00:50:00,11.3,-11.0,29.18,SSW,204,0.0,0.0,35,0.00,,,0.00,VWS V14.01,2013-01-15 06:50:00,
2013-01-15 00:55:00,11.3,-11.0,29.18,SSW,204,0.0,0.0,35,0.00,,,0.00,VWS V14.01,2013-01-15 06:55:00,
2013-01-15 01:00:00,11.3,-11.0,29.18,SSW,204,0.0,0.0,35,0.00,,,0.00,VWS V14.01,2013-01-15 07:00:00,
2013-01-15 01:05:00,11.3,-11.0,29.18,SSW,204,0.0,0.0,35,0.00,,,0.00,VWS V14.01,2013-01-15 07:05:00,
2013-01-15 01:10:00,11.3,-11.0,29.18,SSW,204,0.0,0.0,35,0.00,,,0.00,VWS V14.01,2013-01-15 07:10:00,
2013-01-15 01:15:00,11.5,-10.9,29.18,SSW,204,0.0,0.0,35,0.00,,,0.00,VWS V14.01,2013-01-15 07:15:00,
2013-01-15 01:20:00,11.5,-10.9,29.18,SSW,204,0.0,0.0,35,0.00,,,0.00,VWS V14.01,2013-01-15 07:20:00,
2013-01-15 01:25:00,11.3,-11.0,29.18,SSW,204,0.0,0.0,35,0.00,,,0.00,VWS V14.01,2013-01-15 07:25:00,
2013-01-15 01:30:00,11.1,-11.2,29.18,SSW,204,0.0,0.0,35,0.00,,,0.00,VWS V14.01,2013-01-15 07:30:00,
2013-01-15 01:35:00,11.1,-11.2,29.18,SSW,204,0.0,0.0,35,0.00,,,0.00,VWS V14.01,2013-01-15 07:35:00,
2013-01-15 01:41:00,10.9,-11.3,29.18,SSW,204,0.0,0.0,35,0.00,,,0.00,VWS V14.01,2013-01-15 07:41:00,
2013-01-15 01:45:00,10.9,-11.3,29.18,SSW,204,3.1,3.6,35,0.00,,,0.00,VWS V14.01,2013-01-15 07:45:00,
2013-01-15 01:50:00,11.3,-11.0,29.18,SSW,204,2.7,2.7,35,0.00,,,0.00,VWS V14.01,2013-01-15 07:50:00,
2013-01-15 01:55:00,10.9,-11.3,29.18,SSW,203,3.6,3.6,35,0.00,,,0.00,VWS V14.01,2013-01-15 07:55:00,
2013-01-15 02:00:00,10.9,-11.3,29.18,SSW,203,3.6,3.6,35,0.00,,,0.00,VWS V14.01,2013-01-15 08:00:00,
2013-01-15 02:05:00,10.9,-11.3,29.18,SSW,198,2.2,2.2,35,0.00,,,0.00,VWS V14.01,2013-01-15 08:05:00,
2013-01-15 02:10:00,10.9,-11.3,29.18,SSW,198,2.7,2.7,35,0.00,,,0.00,VWS V14.01,2013-01-15 08:10:00,
2013-01-15 02:15:00,11.1,-11.2,29.18,SSW,198,3.6,3.6,35,0.00,,,0.00,VWS V14.01,2013-01-15 08:15:00,
2013-01-15 02:20:00,11.1,-11.2,29.18,SSW,198,0.0,0.0,35,0.00,,,0.00,VWS V14.01,2013-01-15 08:20:00,
2013-01-15 02:25:00,11.3,-11.0,29.18,SSW,197,2.2,2.2,35,0.00,,,0.00,VWS V14.01,2013-01-15 08:25:00,
2013-01-15 02:30:00,11.5,-10.9,29.18,SSW,198,0.0,0.0,35,0.00,,,0.00,VWS V14.01,2013-01-15 08:30:00,
2013-01-15 02:35:00,11.5,-10.9,29.18,SSW,196,0.0,0.0,35,0.00,,,0.00,VWS V14.01,2013-01-15 08:35:00,
2013-01-15 02:40:00,11.5,-10.9,29.18,SSW,196,0.0,0.0,35,0.00,,,0.00,VWS V14.01,2013-01-15 08:40:00,
2013-01-15 02:45:00,11.7,-10.7,29.18,SSW,196,0.0,0.0,35,0.00,,,0.00,VWS V14.01,2013-01-15 08:45:00,
2013-01-15 02:50:00,11.7,-10.7,29.18,SSW,196,0.0,0.0,35,0.00,,,0.00,VWS V14.01,2013-01-15 08:50:00,
2013-01-15 02:55:00,12.2,-10.2,29.18,SSW,196,3.1,3.1,35,0.00,,,0.00,VWS V14.01,2013-01-15 08:55:00,
2013-01-15 03:00:00,12.7,-9.7,29.18,SSW,196,3.1,3.1,35,0.00,,,0.00,VWS V14.01,2013-01-15 09:00:00,
2013-01-15 03:05:00,12.7,-9.7,29.18,SSW,195,0.0,3.1,35,0.00,,,0.00,VWS V14.01,2013-01-15 09:05:00,
2013-01-15 03:10:00,12.7,-9.7,29.18,SSW,195,0.0,0.0,35,0.00,,,0.00,VWS V14.01,2013-01-15 09:10:00,
2013-01-15 03:15:00,12.7,-9.7,29.18,SSW,195,0.0,0.0,35,0.00,,,0.00,VWS V14.01,2013-01-15 09:15:00,
2013-01-15 03:20:00,12.9,-9.6,29.18,SSW,195,0.0,0.0,35,0.00,,,0.00,VWS V14.01,2013-01-15 09:20:00,
2013-01-15 03:25:00,12.6,-9.9,29.18,SSW,195,0.0,0.0,35,0.00,,,0.00,VWS V14.01,2013-01-15 09:25:00,
2013-01-15 03:30:00,11.7,-10.7,29.18,SSW,196,0.0,0.0,35,0.00,,,0.00,VWS V14.01,2013-01-15 09:30:00,
2013-01-15 03:35:00,11.3,-11.0,29.18,SSW,195,0.0,0.0,35,0.00,,,0.00,VWS V14.01,2013-01-15 09:35:00,
2013-01-15 03:40:00,11.3,-11.0,29.18,SSW,195,0.0,0.0,35,0.00,,,0.00,VWS V14.01,2013-01-15 09:40:00,
2013-01-15 03:45:00,11.1,-11.2,29.18,SSW,195,0.0,0.0,35,0.00,,,0.00,VWS V14.01,2013-01-15 09:45:00,
2013-01-15 03:50:00,10.9,-11.3,29.18,SSW,195,0.0,0.0,35,0.00,,,0.00,VWS V14.01,2013-01-15 09:50:00,
2013-01-15 03:55:00,10.9,-11.3,29.18,SSW,195,0.0,0.0,35,0.00,,,0.00,VWS V14.01,2013-01-15 09:55:00,
2013-01-15 04:00:00,10.4,-11.8,29.18,SSW,195,0.0,0.0,35,0.00,,,0.00,VWS V14.01,2013-01-15 10:00:00,
2013-01-15 04:05:00,10.2,-12.0,29.18,SSW,195,0.0,0.0,35,0.00,,,0.00,VWS V14.01,2013-01-15 10:05:00,
2013-01-15 04:10:00,10.2,-12.0,29.18,SSW,195,0.0,0.0,35,0.00,,,0.00,VWS V14.01,2013-01-15 10:10:00,
2013-01-15 04:15:00,10.0,-12.1,29.18,SSW,195,0.0,0.0,35,0.00,,,0.00,VWS V14.01,2013-01-15 10:15:00,
2013-01-15 04:20:00,10.0,-12.1,29.18,SSW,195,0.0,0.0,35,0.00,,,0.00,VWS V14.01,2013-01-15 10:20:00,
2013-01-15 04:25:00,10.2,-12.0,29.15,SSW,195,0.0,0.0,35,0.00,,,0.00,VWS V14.01,2013-01-15 10:25:00,
2013-01-15 04:30:00,10.2,-12.0,29.15,SSW,195,0.0,0.0,35,0.00,,,0.00,VWS V14.01,2013-01-15 10:30:00,
2013-01-15 04:35:00,10.2,-12.0,29.15,SSW,195,0.0,0.0,35,0.00,,,0.00,VWS V14.01,2013-01-15 10:35:00,
2013-01-15 04:40:00,9.7,-12.5,29.15,SSW,195,0.0,0.0,35,0.00,,,0.00,VWS V14.01,2013-01-15 10:40:00,
2013-01-15 04:45:00,9.7,-12.5,29.15,SSW,195,0.0,0.0,35,0.00,,,0.00,VWS V14.01,2013-01-15 10:45:00,
2013-01-15 04:50:00,9.7,-12.5,29.15,SSW,195,0.0,0.0,35,0.00,,,0.00,VWS V14.01,2013-01-15 10:50:00,
2013-01-15 04:55:00,9.7,-12.5,29.15,SSW,195,0.0,0.0,35,0.00,,,0.00,VWS V14.01,2013-01-15 10:55:00,
2013-01-15 05:00:00,9.5,-12.6,29.15,SSW,195,0.0,0.0,35,0.00,,,0.00,VWS V14.01,2013-01-15 11:00:00,
2013-01-15 05:05:00,9.5,-12.6,29.15,SSW,195,0.0,0.0,35,0.00,,,0.00,VWS V14.01,2013-01-15 11:05:00,
2013-01-15 05:10:00,9.3,-12.8,29.15,SSW,195,0.0,0.0,35,0.00,,,0.00,VWS V14.01,2013-01-15 11:10:00,
2013-01-15 05:15:00,9.1,-12.9,29.15,SSW,195,0.0,0.0,35,0.00,,,0.00,VWS V14.01,2013-01-15 11:15:00,
2013-01-15 05:20:00,9.0,-13.1,29.15,SSW,195,0.0,0.0,35,0.00,,,0.00,VWS V14.01,2013-01-15 11:20:00,
2013-01-15 05:25:00,8.8,-13.3,29.15,SSW,195,0.0,0.0,35,0.00,,,0.00,VWS V14.01,2013-01-15 11:25:00,
2013-01-15 05:30:00,9.0,-13.1,29.15,SSW,196,0.0,0.0,35,0.00,,,0.00,VWS V14.01,2013-01-15 11:30:00,
2013-01-15 05:35:00,9.0,-13.1,29.15,SSW,195,0.0,0.0,35,0.00,,,0.00,VWS V14.01,2013-01-15 11:35:00,
2013-01-15 05:40:00,9.3,-12.8,29.15,SSW,195,0.0,0.0,35,0.00,,,0.00,VWS V14.01,2013-01-15 11:40:00,
2013-01-15 05:45:00,9.3,-12.8,29.15,SSW,195,0.0,0.0,35,0.00,,,0.00,VWS V14.01,2013-01-15 11:45:00,
2013-01-15 05:50:00,9.3,-12.8,29.15,SSW,195,0.0,0.0,35,0.00,,,0.00,VWS V14.01,2013-01-15 11:50:00,
2013-01-15 05:55:00,9.3,-12.8,29.15,SSW,195,0.0,0.0,35,0.00,,,0.00,VWS V14.01,2013-01-15 11:55:00,
2013-01-15 06:00:00,9.3,-12.8,29.15,SSW,195,0.0,0.0,35,0.00,,,0.00,VWS V14.01,2013-01-15 12:00:00,
2013-01-15 06:05:00,9.7,-12.5,29.15,SSW,195,0.0,0.0,35,0.00,,,0.00,VWS V14.01,2013-01-15 12:05:00,
2013-01-15 06:10:00,9.5,-12.6,29.15,SSW,195,0.0,0.0,35,0.00,,,0.00,VWS V14.01,2013-01-15 12:10:00,
2013-01-15 06:15:00,9.3,-12.8,29.15,SSW,195,0.0,0.0,35,0.00,,,0.00,VWS V14.01,2013-01-15 12:15:00,
2013-01-15 06:20:00,9.3,-12.8,29.15,SSW,195,0.0,0.0,35,0.00,,,0.00,VWS V14.01,2013-01-15 12:20:00,
2013-01-15 06:25:00,9.1,-12.9,29.15,SSW,195,0.0,0.0,35,0.00,,,0.00,VWS V14.01,2013-01-15 12:25:00,
2013-01-15 06:30:00,9.1,-12.9,29.15,SSW,195,0.0,0.0,35,0.00,,,0.00,VWS V14.01,2013-01-15 12:30:00,
2013-01-15 06:35:00,9.7,-12.5,29.15,SSW,195,0.0,0.0,35,0.00,,,0.00,VWS V14.01,2013-01-15 12:35:00,
2013-01-15 06:40:00,9.5,-12.6,29.15,SSW,195,0.0,0.0,35,0.00,,,0.00,VWS V14.01,2013-01-15 12:40:00,
2013-01-15 06:45:00,9.3,-12.8,29.15,SSW,195,0.0,0.0,35,0.00,,,0.00,VWS V14.01,2013-01-15 12:45:00,
2013-01-15 06:50:00,9.1,-12.9,29.15,SSW,195,0.0,0.0,35,0.00,,,0.00,VWS V14.01,2013-01-15 12:50:00,
2013-01-15 06:55:00,9.3,-12.8,29.15,SSW,195,0.0,0.0,35,0.00,,,0.00,VWS V14.01,2013-01-15 12:55:00,
2013-01-15 07:00:00,9.5,-12.6,29.15,SSW,195,0.0,0.0,35,0.00,,,0.00,VWS V14.01,2013-01-15 13:00:00,
2013-01-15 07:05:00,9.5,-12.6,29.15,SSW,195,0.0,0.0,35,0.00,,,0.00,VWS V14.01,2013-01-15 13:05:00,
2013-01-15 07:10:00,9.5,-12.6,29.15,SSW,195,0.0,0.0,35,0.00,,,0.00,VWS V14.01,2013-01-15 13:10:00,
2013-01-15 07:15:00,10.0,-12.1,29.15,SSW,195,0.0,0.0,35,0.00,,,0.00,VWS V14.01,2013-01-15 13:15:00,
2013-01-15 07:20:00,9.7,-12.5,29.15,SSW,195,0.0,0.0,35,0.00,,,0.00,VWS V14.01,2013-01-15 13:20:00,
2013-01-15 07:25:00,9.5,-12.6,29.15,SSW,195,0.0,0.0,35,0.00,,,0.00,VWS V14.01,2013-01-15 13:25:00,
2013-01-15 07:30:00,9.5,-12.6,29.15,SSW,195,3.6,3.6,35,0.00,,,0.00,VWS V14.01,2013-01-15 13:30:00,
2013-01-15 07:35:00,9.5,-12.6,29.15,SSW,195,0.0,0.0,35,0.00,,,0.00,VWS V14.01,2013-01-15 13:35:00,
2013-01-15 07:40:00,9.5,-12.6,29.15,SSW,195,0.0,0.0,35,0.00,,,0.00,VWS V14.01,2013-01-15 13:40:00,
2013-01-15 07:45:00,11.3,-11.0,29.15,SSW,195,0.0,0.0,35,0.00,,,0.00,VWS V14.01,2013-01-15 13:45:00,
2013-01-15 07:50:00,11.7,-10.7,29.15,SSW,195,2.7,2.7,35,0.00,,,0.00,VWS V14.01,2013-01-15 13:50:00,
2013-01-15 07:55:00,11.7,-10.7,29.15,SSW,195,0.0,0.0,35,0.00,,,0.00,VWS V14.01,2013-01-15 13:55:00,
2013-01-15 08:00:00,11.1,-11.2,29.15,SSW,195,0.0,0.0,35,0.00,,,0.00,VWS V14.01,2013-01-15 14:00:00,
2013-01-15 08:05:00,10.9,-11.3,29.15,SSW,195,0.0,0.0,35,0.00,,,0.00,VWS V14.01,2013-01-15 14:05:00,
2013-01-15 08:10:00,10.8,-11.5,29.15,SSW,195,0.0,0.0,35,0.00,,,0.00,VWS V14.01,2013-01-15 14:10:00,
2013-01-15 08:15:00,10.8,-11.5,29.15,SSW,195,0.0,0.0,35,0.00,,,0.00,VWS V14.01,2013-01-15 14:15:00,
2013-01-15 08:20:00,11.1,-11.2,29.15,SSW,195,3.1,3.1,35,0.00,,,0.00,VWS V14.01,2013-01-15 14:20:00,
2013-01-15 08:25:00,11.1,-11.2,29.15,SSW,195,0.0,0.0,35,0.00,,,0.00,VWS V14.01,2013-01-15 14:25:00,
2013-01-15 08:30:00,11.1,-11.2,29.15,SSW,195,3.1,3.1,35,0.00,,,0.00,VWS V14.01,2013-01-15 14:30:00,
2013-01-15 08:35:00,12.7,-9.7,29.15,SSW,195,0.0,3.1,35,0.00,,,0.00,VWS V14.01,2013-01-15 14:35:00,
2013-01-15 08:40:00,13.8,-8.8,29.15,SSW,195,0.0,0.0,35,0.00,,,0.00,VWS V14.01,2013-01-15 14:40:00,
2013-01-15 08:45:00,14.4,-3.1,29.15,SSW,195,0.0,0.0,45,0.00,,,0.00,VWS V14.01,2013-01-15 14:45:00,
2013-01-15 08:50:00,15.1,-2.4,29.15,SSW,195,0.0,0.0,45,0.00,,,0.00,VWS V14.01,2013-01-15 14:50:00,
2013-01-15 08:55:00,16.0,-1.6,29.15,SSW,194,2.7,2.7,45,0.00,,,0.00,VWS V14.01,2013-01-15 14:55:00,
2013-01-15 09:00:00,16.5,-1.1,29.15,South,188,4.9,4.9,45,0.00,,,0.00,VWS V14.01,2013-01-15 15:00:00,
2013-01-15 09:05:00,16.5,-1.1,29.15,South,175,5.4,5.4,45,0.00,,,0.00,VWS V14.01,2013-01-15 15:05:00,
2013-01-15 09:10:00,18.1,-0.1,29.15,South,178,3.1,3.1,44,0.00,,,0.00,VWS V14.01,2013-01-15 15:10:00,
2013-01-15 09:15:00,18.7,0.4,29.15,SSE,163,3.6,3.6,44,0.00,,,0.00,VWS V14.01,2013-01-15 15:15:00,
2013-01-15 09:20:00,19.6,0.7,29.15,South,177,3.1,3.6,43,0.00,,,0.00,VWS V14.01,2013-01-15 15:20:00,
2013-01-15 09:25:00,20.3,1.4,29.15,South,186,4.9,4.9,43,0.00,,,0.00,VWS V14.01,2013-01-15 15:25:00,
2013-01-15 09:30:00,20.8,1.9,29.15,SSW,202,3.1,3.1,43,0.00,,,0.00,VWS V14.01,2013-01-15 15:30:00,
2013-01-15 09:35:00,21.6,2.0,29.15,SSW,200,0.0,0.0,42,0.00,,,0.00,VWS V14.01,2013-01-15 15:35:00,
2013-01-15 09:40:00,21.6,2.0,29.15,South,191,3.1,3.1,42,0.00,,,0.00,VWS V14.01,2013-01-15 15:40:00,
2013-01-15 09:45:00,22.5,2.8,29.15,South,183,5.4,5.4,42,0.00,,,0.00,VWS V14.01,2013-01-15 15:45:00,
2013-01-15 09:50:00,23.4,3.2,29.15,South,187,3.1,6.3,41,0.00,,,0.00,VWS V14.01,2013-01-15 15:50:00,
2013-01-15 09:55:00,23.4,3.2,29.15,SSW,196,6.3,6.7,41,0.00,,,0.00,VWS V14.01,2013-01-15 15:55:00,
2013-01-15 10:00:00,24.3,1.2,29.15,South,179,4.9,4.9,36,0.00,,,0.00,VWS V14.01,2013-01-15 16:00:00,
2013-01-15 10:05:00,25.2,1.4,29.15,South,169,0.0,0.0,35,0.00,,,0.00,VWS V14.01,2013-01-15 16:05:00,
2013-01-15 10:10:00,25.3,0.9,29.15,South,189,3.6,6.3,34,0.00,,,0.00,VWS V14.01,2013-01-15 16:10:00,
2013-01-15 10:15:00,26.1,0.2,29.15,South,185,6.3,6.3,32,0.00,,,0.00,VWS V14.01,2013-01-15 16:15:00,
2013-01-15 10:20:00,26.1,0.2,29.15,SSW,195,7.6,7.6,32,0.00,,,0.00,VWS V14.01,2013-01-15 16:20:00,
2013-01-15 10:25:00,27.1,0.5,29.15,SSW,205,4.0,4.0,31,0.00,,,0.00,VWS V14.01,2013-01-15 16:25:00,
2013-01-15 10:30:00,27.7,-1.2,29.15,SSW,207,5.8,7.6,28,0.00,,,0.00,VWS V14.01,2013-01-15 16:30:00,
2013-01-15 10:35:00,28.2,-2.2,29.15,SSW,200,8.3,8.3,26,0.00,,,0.00,VWS V14.01,2013-01-15 16:35:00,
2013-01-15 10:40:00,28.4,-2.1,29.15,South,183,6.7,6.7,26,0.00,,,0.00,VWS V14.01,2013-01-15 16:40:00,
2013-01-15 10:45:00,28.9,-4.2,29.15,WSW,237,8.7,8.7,23,0.00,,,0.00,VWS V14.01,2013-01-15 16:45:00,
2013-01-15 10:50:00,28.9,-4.2,29.15,SSW,208,8.1,8.3,23,0.00,,,0.00,VWS V14.01,2013-01-15 16:50:00,
2013-01-15 10:55:00,29.7,-3.6,29.15,SW,215,10.1,10.1,23,0.00,,,0.00,VWS V14.01,2013-01-15 16:55:00,
2013-01-15 11:00:00,30.0,-3.3,29.15,SW,215,4.9,4.9,23,0.00,,,0.00,VWS V14.01,2013-01-15 17:00:00,
2013-01-15 11:05:00,30.9,-2.5,29.15,SW,235,11.0,11.0,23,0.00,,,0.00,VWS V14.01,2013-01-15 17:05:00,
2013-01-15 11:10:00,31.1,-2.4,29.15,SSW,208,7.6,8.7,23,0.00,,,0.00,VWS V14.01,2013-01-15 17:10:00,
2013-01-15 11:15:00,32.0,-1.6,29.12,SSW,196,6.3,8.1,23,0.00,,,0.00,VWS V14.01,2013-01-15 17:15:00,
2013-01-15 11:20:00,32.4,-1.3,29.12,SSW,208,8.3,8.3,23,0.00,,,0.00,VWS V14.01,2013-01-15 17:20:00,
2013-01-15 11:25:00,32.4,-1.3,29.12,SW,222,8.3,8.3,23,0.00,,,0.00,VWS V14.01,2013-01-15 17:25:00,
2013-01-15 11:30:00,32.4,-1.3,29.12,SW,218,8.7,8.7,23,0.00,,,0.00,VWS V14.01,2013-01-15 17:30:00,
2013-01-15 11:35:00,32.9,-0.8,29.12,South,190,10.5,10.5,23,0.00,,,0.00,VWS V14.01,2013-01-15 17:35:00,
2013-01-15 11:40:00,33.6,-0.2,29.12,SW,219,6.3,6.3,23,0.00,,,0.00,VWS V14.01,2013-01-15 17:40:00,
2013-01-15 11:45:00,33.4,-0.4,29.12,SSW,210,8.1,15.4,23,0.00,,,0.00,VWS V14.01,2013-01-15 17:45:00,
2013-01-15 11:50:00,33.8,-1.0,29.12,SSW,211,8.3,8.7,22,0.00,,,0.00,VWS V14.01,2013-01-15 17:50:00,
2013-01-15 11:55:00,33.8,-1.0,29.12,SSW,209,10.1,10.1,22,0.00,,,0.00,VWS V14.01,2013-01-15 17:55:00,
2013-01-15 12:00:00,34.3,-0.6,29.12,SSW,212,10.1,10.1,22,0.00,,,0.00,VWS V14.01,2013-01-15 18:00:00,
2013-01-15 12:05:00,34.5,-0.4,29.12,SSW,202,10.1,10.1,22,0.00,,,0.00,VWS V14.01,2013-01-15 18:05:00,
2013-01-15 12:10:00,35.1,0.1,29.12,SW,220,11.0,11.0,22,0.00,,,0.00,VWS V14.01,2013-01-15 18:10:00,
2013-01-15 12:15:00,34.9,-0.1,29.09,SSW,210,5.4,5.4,22,0.00,,,0.00,VWS V14.01,2013-01-15 18:15:00,
2013-01-15 12:20:00,34.9,-0.1,29.09,SSW,194,11.9,11.9,22,0.00,,,0.00,VWS V14.01,2013-01-15 18:20:00,
2013-01-15 12:25:00,36.0,0.8,29.09,SSW,202,9.6,9.6,22,0.00,,,0.00,VWS V14.01,2013-01-15 18:25:00,
2013-01-15 12:30:00,36.1,1.0,29.09,SW,222,12.8,12.8,22,0.00,,,0.00,VWS V14.01,2013-01-15 18:30:00,
2013-01-15 12:35:00,35.6,0.5,29.09,SSW,208,5.8,5.8,22,0.00,,,0.00,VWS V14.01,2013-01-15 18:35:00,
2013-01-15 12:40:00,35.8,0.7,29.09,South,178,8.3,8.3,22,0.00,,,0.00,VWS V14.01,2013-01-15 18:40:00,
2013-01-15 12:45:00,36.5,1.3,29.09,South,174,8.1,8.1,22,0.00,,,0.00,VWS V14.01,2013-01-15 18:45:00,
2013-01-15 12:50:00,37.6,1.2,29.09,SW,227,8.7,8.7,21,0.00,,,0.00,VWS V14.01,2013-01-15 18:50:00,
2013-01-15 12:55:00,37.6,1.2,29.09,South,181,9.2,9.2,21,0.00,,,0.00,VWS V14.01,2013-01-15 18:55:00,
2013-01-15 13:00:00,37.9,1.5,29.06,SSW,206,7.6,7.6,21,0.00,,,0.00,VWS V14.01,2013-01-15 19:00:00,
2013-01-15 13:05:00,37.6,1.2,29.06,SSW,210,6.7,10.1,21,0.00,,,0.00,VWS V14.01,2013-01-15 19:05:00,
2013-01-15 13:10:00,37.2,1.9,29.06,SSW,194,8.3,8.3,22,0.00,,,0.00,VWS V14.01,2013-01-15 19:10:00,
2013-01-15 13:15:00,37.6,1.2,29.06,SW,228,12.8,13.2,21,0.00,,,0.00,VWS V14.01,2013-01-15 19:15:00,
2013-01-15 13:20:00,37.2,1.9,29.06,South,191,8.7,8.7,22,0.00,,,0.00,VWS V14.01,2013-01-15 19:20:00,
2013-01-15 13:25:00,37.2,1.9,29.06,South,175,11.0,11.0,22,0.00,,,0.00,VWS V14.01,2013-01-15 19:25:00,
2013-01-15 13:30:00,38.1,1.6,29.06,SSW,203,4.9,4.9,21,0.00,,,0.00,VWS V14.01,2013-01-15 19:30:00,
2013-01-15 13:35:00,38.1,1.6,29.06,SW,229,10.5,10.5,21,0.00,,,0.00,VWS V14.01,2013-01-15 19:35:00,
2013-01-15 13:40:00,38.1,1.6,29.06,SSW,206,8.1,8.1,21,0.00,,,0.00,VWS V14.01,2013-01-15 19:40:00,
2013-01-15 13:45:00,38.8,2.3,29.06,SSW,196,7.6,7.6,21,0.00,,,0.00,VWS V14.01,2013-01-15 19:45:00,
2013-01-15 13:50:00,38.8,2.3,29.06,SW,234,15.0,15.0,21,0.00,,,0.00,VWS V14.01,2013-01-15 19:50:00,
2013-01-15 13:55:00,38.1,1.6,29.06,South,185,8.7,15.0,21,0.00,,,0.00,VWS V14.01,2013-01-15 19:55:00,
2013-01-15 14:00:00,38.1,1.6,29.06,SSW,200,6.7,6.7,21,0.00,,,0.00,VWS V14.01,2013-01-15 20:00:00,
2013-01-15 14:05:00,38.1,1.6,29.06,South,178,7.2,7.2,21,0.00,,,0.00,VWS V14.01,2013-01-15 20:05:00,
2013-01-15 14:10:00,39.2,2.6,29.03,SSW,211,7.2,8.7,21,0.00,,,0.00,VWS V14.01,2013-01-15 20:10:00,
2013-01-15 14:15:00,39.2,2.6,29.03,SSW,194,10.1,10.1,21,0.00,,,0.00,VWS V14.01,2013-01-15 20:15:00,
2013-01-15 14:20:00,38.7,2.1,29.03,SSE,167,8.3,8.3,21,0.00,,,0.00,VWS V14.01,2013-01-15 20:20:00,
2013-01-15 14:25:00,39.2,2.6,29.03,SSW,203,8.7,13.2,21,0.00,,,0.00,VWS V14.01,2013-01-15 20:25:00,
2013-01-15 14:30:00,39.9,3.2,29.03,SSW,209,6.3,8.3,21,0.00,,,0.00,VWS V14.01,2013-01-15 20:30:00,
2013-01-15 14:35:00,39.0,2.4,29.03,SW,214,8.3,8.3,21,0.00,,,0.00,VWS V14.01,2013-01-15 20:35:00,
2013-01-15 14:40:00,38.7,2.1,29.03,SW,218,5.4,10.5,21,0.00,,,0.00,VWS V14.01,2013-01-15 20:40:00,
2013-01-15 14:45:00,39.2,2.6,29.03,South,184,9.6,9.6,21,0.00,,,0.00,VWS V14.01,2013-01-15 20:45:00,
2013-01-15 14:50:00,39.6,2.9,29.03,South,179,8.3,8.3,21,0.00,,,0.00,VWS V14.01,2013-01-15 20:50:00,
2013-01-15 14:55:00,39.7,3.0,29.03,SSE,164,10.5,10.5,21,0.00,,,0.00,VWS V14.01,2013-01-15 20:55:00,
2013-01-15 15:00:00,39.9,3.2,29.03,SW,229,3.6,3.6,21,0.00,,,0.00,VWS V14.01,2013-01-15 21:00:00,
2013-01-15 15:05:00,39.9,3.2,29.03,South,187,7.6,11.0,21,0.00,,,0.00,VWS V14.01,2013-01-15 21:05:00,
2013-01-15 15:10:00,37.6,1.2,29.03,SSW,209,12.3,12.3,21,0.00,,,0.00,VWS V14.01,2013-01-15 21:10:00,
2013-01-15 15:15:00,37.0,1.7,29.03,SSW,208,4.0,4.0,22,0.00,,,0.00,VWS V14.01,2013-01-15 21:15:00,
2013-01-15 15:20:00,37.8,1.4,29.03,SSW,213,7.6,7.6,21,0.00,,,0.00,VWS V14.01,2013-01-15 21:20:00,
2013-01-15 15:25:00,39.4,2.7,29.03,South,177,5.4,5.4,21,0.00,,,0.00,VWS V14.01,2013-01-15 21:25:00,
2013-01-15 15:30:00,39.7,3.0,29.03,SW,227,6.3,6.3,21,0.00,,,0.00,VWS V14.01,2013-01-15 21:30:00,
2013-01-15 15:35:00,38.1,1.6,29.03,South,189,8.3,8.3,21,0.00,,,0.00,VWS V14.01,2013-01-15 21:35:00,
2013-01-15 15:40:00,38.5,2.0,29.03,SSW,206,6.3,6.3,21,0.00,,,0.00,VWS V14.01,2013-01-15 21:40:00,
2013-01-15 15:45:00,38.5,2.0,29.03,South,182,6.3,10.5,21,0.00,,,0.00,VWS V14.01,2013-01-15 21:45:00,
2013-01-15 15:50:00,38.5,2.0,29.03,SSW,207,9.6,9.6,21,0.00,,,0.00,VWS V14.01,2013-01-15 21:50:00,
2013-01-15 15:55:00,37.2,1.9,29.03,South,186,8.3,8.3,22,0.00,,,0.00,VWS V14.01,2013-01-15 21:55:00,
2013-01-15 16:00:00,36.1,1.0,29.03,SSE,168,10.5,10.5,22,0.00,,,0.00,VWS V14.01,2013-01-15 22:00:00,
2013-01-15 16:05:00,36.3,1.1,29.03,South,187,5.8,5.8,22,0.00,,,0.00,VWS V14.01,2013-01-15 22:05:00,
2013-01-15 16:10:00,37.4,1.0,29.03,SSW,202,4.9,4.9,21,0.00,,,0.00,VWS V14.01,2013-01-15 22:10:00,
2013-01-15 16:15:00,37.4,1.0,29.03,SW,216,5.8,5.8,21,0.00,,,0.00,VWS V14.01,2013-01-15 22:15:00,
2013-01-15 16:20:00,38.3,1.8,29.03,SW,214,5.8,5.8,21,0.00,,,0.00,VWS V14.01,2013-01-15 22:20:00,
2013-01-15 16:25:00,38.3,1.8,29.03,South,186,7.6,10.5,21,0.00,,,0.00,VWS V14.01,2013-01-15 22:25:00,
2013-01-15 16:30:00,37.6,1.2,29.03,SSW,196,5.4,5.8,21,0.00,,,0.00,VWS V14.01,2013-01-15 22:30:00,
2013-01-15 16:35:00,37.2,1.9,29.03,SW,220,5.8,6.3,22,0.00,,,0.00,VWS V14.01,2013-01-15 22:35:00,
2013-01-15 16:40:00,37.0,1.7,29.00,SW,220,5.8,5.8,22,0.00,,,0.00,VWS V14.01,2013-01-15 22:40:00,
2013-01-15 16:44:00,36.1,1.0,29.00,South,191,4.0,4.0,22,0.00,,,0.00,VWS V14.01,2013-01-15 22:44:00,
2013-01-15 17:00:00,34.5,-0.4,29.00,SSW,201,5.8,5.8,22,0.00,,,0.00,VWS V14.01,2013-01-15 23:00:00,
2013-01-15 17:05:00,33.6,-0.2,29.00,SSW,198,10.5,10.5,23,0.00,,,0.00,VWS V14.01,2013-01-15 23:05:00,
2013-01-15 17:10:00,32.9,-0.8,29.00,SSW,195,5.8,8.1,23,0.00,,,0.00,VWS V14.01,2013-01-15 23:10:00,
2013-01-15 17:15:00,32.2,-1.4,29.00,South,183,5.4,5.8,23,0.00,,,0.00,VWS V14.01,2013-01-15 23:15:00,
2013-01-15 17:20:00,31.5,-2.0,29.00,South,191,5.8,5.8,23,0.00,,,0.00,VWS V14.01,2013-01-15 23:20:00,
2013-01-15 17:25:00,30.7,-2.7,29.00,South,186,3.6,8.1,23,0.00,,,0.00,VWS V14.01,2013-01-15 23:25:00,
2013-01-15 17:30:00,30.2,-3.1,29.00,South,186,6.3,6.3,23,0.00,,,0.00,VWS V14.01,2013-01-15 23:30:00,
2013-01-15 17:35:00,29.8,-3.4,29.00,SSW,195,6.3,6.3,23,0.00,,,0.00,VWS V14.01,2013-01-15 23:35:00,
2013-01-15 17:40:00,29.5,-3.7,29.00,South,187,5.4,5.4,23,0.00,,,0.00,VWS V14.01,2013-01-15 23:40:00,
2013-01-15 17:45:00,29.1,-4.1,29.00,SSW,192,5.4,6.3,23,0.00,,,0.00,VWS V14.01,2013-01-15 23:45:00,
2013-01-15 17:50:00,28.9,-4.2,29.00,SSW,194,3.1,3.1,23,0.00,,,0.00,VWS V14.01,2013-01-15 23:50:00,
2013-01-15 17:55:00,28.6,-4.5,29.00,South,188,5.8,5.8,23,0.00,,,0.00,VWS V14.01,2013-01-15 23:55:00,
2013-01-15 18:00:00,28.2,-4.8,29.00,SSW,193,4.9,6.3,23,0.00,,,0.00,VWS V14.01,2013-01-16 00:00:00,
2013-01-15 18:05:00,27.9,-5.1,29.00,SSW,194,3.6,3.6,23,0.00,,,0.00,VWS V14.01,2013-01-16 00:05:00,
2013-01-15 18:10:00,27.7,-5.3,29.00,SSW,195,3.6,4.9,23,0.00,,,0.00,VWS V14.01,2013-01-16 00:10:00,
2013-01-15 18:15:00,27.3,-5.6,29.00,SSW,195,4.5,5.8,23,0.00,,,0.00,VWS V14.01,2013-01-16 00:15:00,
2013-01-15 18:20:00,27.1,-5.7,29.00,SSW,195,3.6,4.9,23,0.00,,,0.00,VWS V14.01,2013-01-16 00:20:00,
2013-01-15 18:25:00,27.0,-5.9,29.00,South,181,5.8,5.8,23,0.00,,,0.00,VWS V14.01,2013-01-16 00:25:00,
2013-01-15 18:30:00,26.8,-6.0,29.00,South,184,4.5,4.5,23,0.00,,,0.00,VWS V14.01,2013-01-16 00:30:00,
2013-01-15 18:35:00,26.6,-5.3,29.00,South,181,3.6,5.8,24,0.00,,,0.00,VWS V14.01,2013-01-16 00:35:00,
2013-01-15 18:40:00,26.6,-5.3,29.00,South,181,5.4,5.8,24,0.00,,,0.00,VWS V14.01,2013-01-16 00:40:00,
2013-01-15 18:45:00,26.4,-5.5,29.00,South,189,5.8,5.8,24,0.00,,,0.00,VWS V14.01,2013-01-16 00:45:00,
2013-01-15 18:50:00,26.2,-5.6,29.00,South,183,5.8,6.3,24,0.00,,,0.00,VWS V14.01,2013-01-16 00:50:00,
2013-01-15 18:55:00,26.2,-5.6,29.00,South,183,5.4,6.3,24,0.00,,,0.00,VWS V14.01,2013-01-16 00:55:00,
2013-01-15 19:00:00,26.1,-4.1,29.00,South,185,5.8,7.6,26,0.00,,,0.00,VWS V14.01,2013-01-16 01:00:00,
2013-01-15 19:05:00,26.1,-4.1,29.00,South,183,5.4,5.8,26,0.00,,,0.00,VWS V14.01,2013-01-16 01:05:00,
2013-01-15 19:10:00,25.9,-4.3,29.00,South,179,6.7,6.7,26,0.00,,,0.00,VWS V14.01,2013-01-16 01:10:00,
2013-01-15 19:15:00,25.7,-4.4,29.00,South,175,6.3,6.3,26,0.00,,,0.00,VWS V14.01,2013-01-16 01:15:00,
2013-01-15 19:20:00,25.5,-4.6,29.00,South,179,4.0,6.3,26,0.00,,,0.00,VWS V14.01,2013-01-16 01:20:00,
2013-01-15 19:25:00,25.5,-4.6,29.00,South,176,5.8,5.8,26,0.00,,,0.00,VWS V14.01,2013-01-16 01:25:00,
2013-01-15 19:30:00,25.3,-4.7,29.00,South,185,7.6,10.1,26,0.00,,,0.00,VWS V14.01,2013-01-16 01:30:00,
2013-01-15 19:35:00,25.3,-2.5,29.00,South,189,6.3,6.3,29,0.00,,,0.00,VWS V14.01,2013-01-16 01:35:00,
2013-01-15 19:40:00,25.3,-2.5,28.97,South,183,6.3,6.3,29,0.00,,,0.00,VWS V14.01,2013-01-16 01:40:00,
2013-01-15 19:45:00,25.2,-2.6,28.97,South,187,6.3,7.2,29,0.00,,,0.00,VWS V14.01,2013-01-16 01:45:00,
2013-01-15 19:50:00,25.2,-2.6,28.97,South,186,5.8,8.1,29,0.00,,,0.00,VWS V14.01,2013-01-16 01:50:00,
2013-01-15 19:55:00,25.0,-2.8,28.97,South,179,6.3,8.7,29,0.00,,,0.00,VWS V14.01,2013-01-16 01:55:00,
2013-01-15 20:00:00,25.2,-1.2,28.97,SSW,193,5.4,8.1,31,0.00,,,0.00,VWS V14.01,2013-01-16 02:00:00,
2013-01-15 20:05:00,25.2,-1.2,28.97,SSW,192,6.3,8.3,31,0.00,,,0.00,VWS V14.01,2013-01-16 02:05:00,
2013-01-15 20:10:00,25.2,-1.2,28.97,SSW,192,8.3,8.3,31,0.00,,,0.00,VWS V14.01,2013-01-16 02:10:00,
2013-01-15 20:15:00,25.0,-1.4,28.97,South,186,5.4,7.6,31,0.00,,,0.00,VWS V14.01,2013-01-16 02:15:00,
2013-01-15 20:20:00,24.8,-0.9,28.97,South,191,5.8,8.1,32,0.00,,,0.00,VWS V14.01,2013-01-16 02:20:00,
2013-01-15 20:25:00,24.4,-1.2,28.97,South,180,5.8,7.6,32,0.00,,,0.00,VWS V14.01,2013-01-16 02:25:00,
2013-01-15 20:30:00,24.4,-1.2,28.97,South,178,6.3,6.7,32,0.00,,,0.00,VWS V14.01,2013-01-16 02:30:00,
2013-01-15 20:35:00,24.1,-1.5,28.97,South,177,7.6,7.6,32,0.00,,,0.00,VWS V14.01,2013-01-16 02:35:00,
2013-01-15 20:40:00,23.9,-1.7,28.97,South,182,5.4,6.3,32,0.00,,,0.00,VWS V14.01,2013-01-16 02:40:00,
2013-01-15 20:45:00,23.7,-1.8,28.97,South,187,5.4,5.8,32,0.00,,,0.00,VWS V14.01,2013-01-16 02:45:00,
2013-01-15 20:50:00,23.5,-2.0,28.97,South,190,5.4,5.4,32,0.00,,,0.00,VWS V14.01,2013-01-16 02:50:00,
2013-01-15 20:55:00,23.5,-2.0,28.94,South,180,5.4,5.8,32,0.00,,,0.00,VWS V14.01,2013-01-16 02:55:00,
2013-01-15 21:00:00,23.4,-2.1,28.94,South,177,6.3,6.3,32,0.00,,,0.00,VWS V14.01,2013-01-16 03:00:00,
2013-01-15 21:05:00,23.2,-2.3,28.94,South,174,5.4,5.4,32,0.00,,,0.00,VWS V14.01,2013-01-16 03:05:00,
2013-01-15 21:10:00,22.8,-2.6,28.97,South,172,5.8,6.3,32,0.00,,,0.00,VWS V14.01,2013-01-16 03:10:00,
2013-01-15 21:15:00,22.6,-2.8,28.97,South,180,3.6,4.0,32,0.00,,,0.00,VWS V14.01,2013-01-16 03:15:00,
2013-01-15 21:20:00,22.5,-2.9,28.97,South,181,4.5,6.3,32,0.00,,,0.00,VWS V14.01,2013-01-16 03:20:00,
2013-01-15 21:25:00,22.3,-3.1,28.97,South,182,4.0,4.9,32,0.00,,,0.00,VWS V14.01,2013-01-16 03:25:00,
2013-01-15 21:30:00,22.3,-2.4,28.97,South,183,4.9,4.9,33,0.00,,,0.00,VWS V14.01,2013-01-16 03:30:00,
2013-01-15 21:35:00,22.1,-2.6,28.97,South,179,5.4,5.4,33,0.00,,,0.00,VWS V14.01,2013-01-16 03:35:00,
2013-01-15 21:40:00,21.7,-2.9,28.94,SSE,167,3.6,4.9,33,0.00,,,0.00,VWS V14.01,2013-01-16 03:40:00,
2013-01-15 21:45:00,21.4,-3.2,28.94,South,172,5.8,5.8,33,0.00,,,0.00,VWS V14.01,2013-01-16 03:45:00,
2013-01-15 21:50:00,21.4,-3.2,28.94,South,175,5.4,5.8,33,0.00,,,0.00,VWS V14.01,2013-01-16 03:50:00,
2013-01-15 21:55:00,21.2,-3.4,28.94,South,176,5.4,5.4,33,0.00,,,0.00,VWS V14.01,2013-01-16 03:55:00,
2013-01-15 22:00:00,21.2,-3.4,28.94,South,178,4.0,5.4,33,0.00,,,0.00,VWS V14.01,2013-01-16 04:00:00,
2013-01-15 22:05:00,21.2,-2.8,28.94,South,176,5.4,5.4,34,0.00,,,0.00,VWS V14.01,2013-01-16 04:05:00,
2013-01-15 22:10:00,21.2,-2.8,28.94,South,177,5.4,5.8,34,0.00,,,0.00,VWS V14.01,2013-01-16 04:10:00,
2013-01-15 22:15:00,21.2,-2.8,28.94,South,181,5.8,5.8,34,0.00,,,0.00,VWS V14.01,2013-01-16 04:15:00,
2013-01-15 22:20:00,21.2,-2.8,28.94,South,181,5.4,5.8,34,0.00,,,0.00,VWS V14.01,2013-01-16 04:20:00,
2013-01-15 22:25:00,21.2,-2.8,28.94,South,181,4.5,6.3,34,0.00,,,0.00,VWS V14.01,2013-01-16 04:25:00,
2013-01-15 22:30:00,21.2,-2.8,28.94,South,178,5.8,6.3,34,0.00,,,0.00,VWS V14.01,2013-01-16 04:30:00,
2013-01-15 22:35:00,21.0,-2.3,28.94,SSE,168,5.4,6.3,35,0.00,,,0.00,VWS V14.01,2013-01-16 04:35:00,
2013-01-15 22:40:00,21.0,-2.3,28.94,South,178,8.3,8.3,35,0.00,,,0.00,VWS V14.01,2013-01-16 04:40:00,
2013-01-15 22:45:00,20.8,-2.5,28.94,South,176,6.3,8.7,35,0.00,,,0.00,VWS V14.01,2013-01-16 04:45:00,
2013-01-15 22:50:00,21.0,-2.3,28.94,South,179,6.3,8.3,35,0.00,,,0.00,VWS V14.01,2013-01-16 04:50:00,
2013-01-15 22:55:00,21.0,-1.7,28.91,South,173,7.6,7.6,36,0.00,,,0.00,VWS V14.01,2013-01-16 04:55:00,
2013-01-15 23:00:00,21.2,-1.6,28.91,South,182,5.8,8.1,36,0.00,,,0.00,VWS V14.01,2013-01-16 05:00:00,
2013-01-15 23:02:00,21.2,-1.6,28.91,South,172,5.8,8.1,36,0.00,,,0.00,VWS V14.01,2013-01-16 05:02:00,
2013-01-15 23:03:00,21.2,-1.0,28.91,South,177,6.3,8.7,37,0.00,,,0.00,VWS V14.01,2013-01-16 05:03:00,
2013-01-15 23:08:00,21.2,-1.0,28.91,South,179,6.3,8.7,37,0.00,,,0.00,VWS V14.01,2013-01-16 05:08:00,
2013-01-15 23:13:00,21.2,-1.0,28.91,SSW,194,5.8,8.3,37,0.00,,,0.00,VWS V14.01,2013-01-16 05:13:00,
2013-01-15 23:18:00,21.2,-1.0,28.91,SSW,193,5.8,10.5,37,0.00,,,0.00,VWS V14.01,2013-01-16 05:18:00,
2013-01-15 23:23:00,21.2,-1.0,28.91,South,191,7.6,7.6,37,0.00,,,0.00,VWS V14.01,2013-01-16 05:23:00,
2013-01-15 23:28:00,21.4,-0.3,28.91,South,175,6.3,10.1,38,0.00,,,0.00,VWS V14.01,2013-01-16 05:28:00,
2013-01-15 23:33:00,21.6,-0.1,28.91,South,189,7.6,8.7,38,0.00,,,0.00,VWS V14.01,2013-01-16 05:33:00,
2013-01-15 23:38:00,21.9,0.2,28.88,SSW,197,5.4,9.2,38,0.00,,,0.00,VWS V14.01,2013-01-16 05:38:00,
2013-01-15 23:43:00,22.5,1.3,28.88,South,185,10.5,13.2,39,0.00,,,0.00,VWS V14.01,2013-01-16 05:43:00,
2013-01-15 23:48:00,22.8,1.6,28.88,SSW,199,5.8,8.1,39,0.00,,,0.00,VWS V14.01,2013-01-16 05:48:00,
2013-01-15 23:53:00,23.2,1.4,28.91,SSW,198,8.7,8.7,38,0.00,,,0.00,VWS V14.01,2013-01-16 05:53:00,
2013-01-15 23:58:00,23.5,1.1,28.91,SSW,193,8.1,8.7,37,0.00,,,0.00,VWS V14.01,2013-01-16 05:58:00,